Weather History for Cairo, Egypt

Change the Weather History Date:

Thursday, November 8, 2012

  Actual Average Record
Temperature  
Mean Temperature 72 °F -  
Max Temperature 81 °F 72 °F 84 °F (2004)
Min Temperature 64 °F 55 °F 39 °F (1999)
Cooling Degree Days 8    
Growing Degree Days 22 (Base 50)    
Moisture  
Dew Point 63 °F    
Average Humidity 72    
Maximum Humidity 94    
Minimum Humidity 51    
Precipitation  
Precipitation 0.00 in 0.00 in - ()
Sea Level Pressure  
Sea Level Pressure 29.94 in    
Wind  
Wind Speed 6 mph ()    
Max Wind Speed 12 mph    
Max Gust Speed -    
Visibility 3.3 miles    
Events      
Averages and records for this station are not official NWS values.
T = Trace of Precipitation, MM = Missing Value Source: Averaged Metar Reports

Daily Weather History Graph

Daily Weather History Graph

Search for Another Location

Airport:

Trip Planner

Search our weather history database for the weather conditions in past years. The results will help you decide how hot, cold, wet, or windy it might be!

Date:

Astronomy

Nov. 08, 2012 Rise Set
Actual Time 6:13 AM EET 5:01 PM EET
Civil Twilight 5:48 AM EET 5:26 PM EET
Nautical Twilight 5:20 AM EET 5:55 PM EET
Astronomical Twilight 4:52 AM EET 6:23 PM EET
Moon 12:14 AM EET (11/8) 1:08 PM EET (11/8)
Length of Visible Light 11h 37m
Length of Day
10h 47m
Waning Crescent, 36% of the Moon is Illuminated
Nov 8
Waning Crescent
Nov 14
New
Nov 20
First Quarter
Nov 28
Full
Dec 6
Last Quarter

Hourly Weather History & Observations

Time (EET) Temp. Heat Index Dew Point Humidity Pressure Visibility Wind Dir Wind Speed Gust Speed Precip Events Conditions
12:00 AM 69.8 °F - 64.4 °F 83% 30.01 in - NNE 11.5 mph - N/A   Clear
12:30 AM 69.8 °F - 64.4 °F 83% 30.01 in - NNE 11.5 mph - N/A   Clear
1:00 AM 68.0 °F - 64.4 °F 88% 30.01 in - NNE 8.1 mph - N/A   Clear
1:30 AM 68.0 °F - 64.4 °F 88% 30.01 in - NE 6.9 mph - N/A   Clear
2:00 AM 67 °F - 64 °F 89% 30.00 in 4 mi NE 6.9 mph - -   Mist
2:00 AM 68.0 °F - 64.4 °F 88% 29.98 in 3.7 mi NE 6.9 mph - N/A   Unknown
2:30 AM 68.0 °F - 64.4 °F 88% 29.98 in 3.7 mi NE 6.9 mph - N/A   Unknown
3:00 AM 68.0 °F - 64.4 °F 88% 29.98 in 3.7 mi NNE 5.8 mph - N/A   Unknown
3:30 AM 66.2 °F - 62.6 °F 88% 29.98 in 3.7 mi NE 5.8 mph - N/A   Unknown
4:00 AM 68.0 °F - 62.6 °F 83% 29.98 in 2.5 mi NE 5.8 mph - N/A   Mist
4:30 AM 66.2 °F - 62.6 °F 88% 29.98 in 2.5 mi NE 5.8 mph - N/A   Mist
5:00 AM 64.4 °F - 62.6 °F 94% 29.98 in 2.5 mi ENE 3.5 mph - N/A   Mist
5:30 AM 64.4 °F - 62.6 °F 94% 29.98 in 2.5 mi East 5.8 mph - N/A   Mist
6:00 AM 64.4 °F - 62.6 °F 94% 29.98 in 2.5 mi ENE 5.8 mph - N/A   Mist
6:30 AM 64.4 °F - 62.6 °F 94% 29.98 in 2.5 mi ENE 5.8 mph - N/A   Mist
7:00 AM 66.2 °F - 62.6 °F 88% 29.98 in 2.5 mi ENE 4.6 mph - N/A   Mist
7:30 AM 68.0 °F - 64.4 °F 88% 29.98 in 2.5 mi North 5.8 mph - N/A   Mist
8:00 AM 69 °F - 65 °F 81% 29.98 in 2 mi NE 6.9 mph - -   Mist
8:00 AM 68.0 °F - 64.4 °F 88% 29.98 in 2.5 mi NE 6.9 mph - N/A   Mist
8:30 AM 69.8 °F - 64.4 °F 83% 29.98 in 3.7 mi NE 6.9 mph - N/A   Unknown
9:00 AM 71.6 °F - 64.4 °F 78% 29.98 in 3.7 mi ENE 10.4 mph - N/A   Unknown
9:30 AM 73.4 °F - 62.6 °F 69% 29.98 in - NE 9.2 mph - N/A   Clear
10:00 AM 73.4 °F - 62.6 °F 69% 29.98 in - NE 8.1 mph - N/A   Clear
10:30 AM 73.4 °F - 62.6 °F 69% 29.98 in - NE 8.1 mph - N/A   Clear
11:00 AM 77.0 °F - 66.2 °F 69% 29.95 in - North 8.1 mph - N/A   Clear
11:30 AM 77.0 °F - 62.6 °F 61% 29.92 in - North 4.6 mph - N/A   Clear
12:00 PM 78.8 °F - 62.6 °F 57% 29.92 in - NW 4.6 mph - N/A   Clear
12:30 PM 78.8 °F - 62.6 °F 57% 29.92 in - NW 4.6 mph - N/A   Clear
1:00 PM 78.8 °F - 62.6 °F 57% 29.92 in - NNW 6.9 mph - N/A   Clear
1:30 PM 78.8 °F - 62.6 °F 57% 29.89 in - West 4.6 mph - N/A   Clear
2:00 PM 81 °F - 66 °F 51% 29.89 in 6 mi NNW 5.8 mph - -   Partly Cloudy
2:00 PM 80.6 °F 82.7 °F 66.2 °F 61% 29.92 in - NNW 5.8 mph - N/A   Clear
2:30 PM 78.8 °F - 62.6 °F 57% 29.89 in - NW 8.1 mph - N/A   Clear
3:00 PM 78.8 °F - 62.6 °F 57% 29.89 in - NW 10.4 mph - N/A   Clear
3:30 PM 78.8 °F - 62.6 °F 57% 29.89 in - NNW 8.1 mph - N/A   Clear
4:00 PM 77.0 °F - 62.6 °F 61% 29.89 in - NNW 10.4 mph - N/A   Clear
4:30 PM 77.0 °F - 60.8 °F 57% 29.89 in - NNW 5.8 mph - N/A   Clear
5:00 PM 78.8 °F - 62.6 °F 57% 29.89 in - North 5.8 mph - N/A   Clear
5:30 PM 78.8 °F - 62.6 °F 57% 29.89 in - North 5.8 mph - N/A   Clear
6:00 PM 77.0 °F - 62.6 °F 61% 29.89 in - North 5.8 mph - N/A   Clear
6:30 PM 77.0 °F - 62.6 °F 61% 29.89 in - North 5.8 mph - N/A   Clear
7:00 PM 75.2 °F - 62.6 °F 65% 29.89 in - North 3.5 mph - N/A   Clear
7:30 PM 75.2 °F - 62.6 °F 65% 29.89 in - North 3.5 mph - N/A   Clear
8:00 PM 75 °F - 61 °F 53% 29.91 in 6 mi WNW 2.3 mph - -  
8:00 PM 75.2 °F - 60.8 °F 61% 29.92 in - NNE 2.3 mph - N/A   Clear
8:30 PM 75.2 °F - 60.8 °F 61% 29.92 in - NNE 2.3 mph - N/A   Clear
9:00 PM 73.4 °F - 60.8 °F 65% 29.89 in - East 3.5 mph - N/A   Clear
9:30 PM 73.4 °F - 60.8 °F 65% 29.89 in - East 3.5 mph - N/A   Clear
10:00 PM 73.4 °F - 62.6 °F 69% 29.89 in - East 2.3 mph - N/A   Clear
10:30 PM 71.6 °F - 60.8 °F 69% 29.89 in - East 2.3 mph - N/A   Clear
11:00 PM 71.6 °F - 60.8 °F 69% 29.89 in - South 1.2 mph - N/A   Clear
11:30 PM 71.6 °F - 60.8 °F 69% 29.89 in - South 1.2 mph - N/A   Clear